Weather History for Barking Sands, HI

Change the Weather History Date:

Tuesday, October 1, 2013

  Actual Average Record
Temperature  
Mean Temperature 76 °F -  
Max Temperature 82 °F 86 °F 89 °F (1960)
Min Temperature 71 °F 66 °F 60 °F (1972)
Cooling Degree Days 12    
Growing Degree Days 26 (Base 50)    
Moisture  
Dew Point 68 °F    
Average Humidity 75    
Maximum Humidity 87    
Minimum Humidity 62    
Precipitation  
Precipitation 0.06 in - - ()
Sea Level Pressure  
Sea Level Pressure 29.98 in    
Wind  
Wind Speed 4 mph (NE)    
Max Wind Speed 12 mph    
Max Gust Speed -    
Visibility 10 miles    
Events      
Averages and records for this station are not official NWS values.
T = Trace of Precipitation, MM = Missing Value Source: NWS Daily Summary

Daily Weather History Graph

Daily Weather History Graph

Search for Another Location

Airport:

Trip Planner

Search our weather history database for the weather conditions in past years. The results will help you decide how hot, cold, wet, or windy it might be!

Date:

Astronomy

Oct. 01, 2013 Rise Set
Actual Time 6:30 AM HST 6:26 PM HST
Civil Twilight 6:08 AM HST 6:48 PM HST
Nautical Twilight 5:42 AM HST 7:14 PM HST
Astronomical Twilight 5:16 AM HST 7:40 PM HST
Moon 3:35 AM HST (10/1) 4:20 PM HST (10/1)
Length of Visible Light 12h 40m
Length of Day
11h 55m
Waning Crescent, 10% of the Moon is Illuminated
Oct 1
Waning Crescent
Oct 4
New
Oct 11
First Quarter
Oct 18
Full
Oct 26
Last Quarter

Hourly Weather History & Observations

Time (HST) Temp. Heat Index Dew Point Humidity Pressure Visibility Wind Dir Wind Speed Gust Speed Precip Events Conditions
12:56 AM 71.1 °F - 66.0 °F 84% 30.00 in 10.0 mi ENE 3.5 mph - 0.01 in   Clear
1:56 AM 71.1 °F - 66.0 °F 84% 29.99 in 10.0 mi ENE 3.5 mph - N/A   Clear
2:56 AM 72.0 °F - 64.9 °F 78% 29.97 in 10.0 mi Calm Calm - 0.01 in   Partly Cloudy
3:56 AM 72.0 °F - 64.0 °F 76% 29.97 in 10.0 mi East 4.6 mph - N/A   Clear
4:56 AM 71.1 °F - 64.9 °F 81% 29.97 in 10.0 mi ENE 4.6 mph - 0.01 in   Partly Cloudy
5:56 AM 72.0 °F - 64.9 °F 78% 29.99 in 10.0 mi East 3.5 mph - N/A   Mostly Cloudy
6:56 AM 72.0 °F - 66.0 °F 81% 30.00 in 10.0 mi East 4.6 mph - N/A   Clear
7:56 AM 73.0 °F - 64.9 °F 76% 30.01 in 10.0 mi ESE 3.5 mph - N/A   Overcast
8:56 AM 80.1 °F 82.3 °F 66.9 °F 64% 30.01 in 10.0 mi Calm Calm - 0.01 in   Overcast
9:56 AM 81.0 °F 84.4 °F 70.0 °F 69% 30.02 in 10.0 mi NW 6.9 mph - N/A   Partly Cloudy
10:56 AM 82.0 °F 85.5 °F 69.1 °F 65% 30.01 in 10.0 mi NW 6.9 mph - N/A   Scattered Clouds
11:56 AM 82.0 °F 85.5 °F 69.1 °F 65% 30.00 in 10.0 mi NW 8.1 mph - 0.01 in   Partly Cloudy
12:56 PM 82.0 °F 84.9 °F 68.0 °F 62% 29.98 in 10.0 mi West 6.9 mph - N/A   Mostly Cloudy
1:56 PM 82.0 °F 85.5 °F 69.1 °F 65% 29.95 in 10.0 mi WNW 3.5 mph - 0.00 in   Mostly Cloudy
2:56 PM 82.9 °F 87.0 °F 70.0 °F 65% 29.94 in 10.0 mi North 11.5 mph - N/A   Partly Cloudy
3:56 PM 82.0 °F 85.9 °F 70.0 °F 67% 29.93 in 10.0 mi NNW 6.9 mph - N/A   Partly Cloudy
4:56 PM 81.0 °F 84.1 °F 69.1 °F 67% 29.93 in 10.0 mi Variable 5.8 mph - 0.01 in   Scattered Clouds
5:56 PM 80.1 °F 83.6 °F 71.1 °F 74% 29.94 in 10.0 mi Calm Calm - 0.00 in   Partly Cloudy
6:56 PM 77.0 °F - 72.0 °F 84% 29.95 in 10.0 mi NE 4.6 mph - 0.00 in   Partly Cloudy
7:56 PM 77.0 °F - 71.1 °F 82% 29.96 in 10.0 mi Calm Calm - 0.00 in   Clear
8:56 PM 75.9 °F - 72.0 °F 87% 29.97 in 10.0 mi Calm Calm - N/A   Clear
9:56 PM 73.9 °F - 70.0 °F 87% 29.98 in 10.0 mi East 3.5 mph - N/A   Clear
10:56 PM 73.9 °F - 69.1 °F 85% 29.99 in 10.0 mi East 4.6 mph - N/A   Clear
11:56 PM 73.9 °F - 69.1 °F 85% 29.99 in 10.0 mi Calm Calm - N/A   Clear